Total_Precipitation_Accumulation
0.78 0.82 0.92 1.09 1.32 1.36 1.27 1.16 1.04 1.03 1.02 1.02 1.05 1.09 1.09 1.06 1.02 1.06 1.01 0.93 0.94 0.94 0.97 1.00 1.00 1.00 1.04 0.99 1.01 1.04 1.05 1.12 1.11 0.67 0.53 0.57 0.74 0.82 0.79 0.75 0.81 0.86 0.89
0.75 0.77 0.84 0.94 1.11 1.34 1.30 1.17 1.04 1.00 1.01 1.02 1.00 1.04 1.05 1.07 1.07 1.07 1.02 0.95 0.95 0.94 0.94 0.92 0.92 0.93 0.99 0.95 0.95 0.95 0.92 0.89 0.94 0.77 0.54 0.53 0.62 0.71 0.82 0.88 0.85 0.84 0.83
0.74 0.77 0.78 0.86 0.95 1.07 1.22 1.18 1.08 1.01 0.99 1.00 1.02 1.03 1.08 1.12 1.11 1.04 1.03 0.98 0.93 0.93 0.94 0.95 0.91 0.94 0.97 0.92 0.93 0.90 0.82 0.77 0.79 0.81 0.64 0.55 0.59 0.64 0.82 0.96 0.95 0.94 0.90
0.66 0.73 0.72 0.73 0.81 0.86 0.98 1.17 1.18 1.09 1.01 0.94 0.95 0.99 1.09 1.26 1.29 1.22 1.23 1.12 0.99 0.93 0.88 0.87 0.90 1.00 1.01 1.00 1.02 0.92 0.86 0.88 0.90 0.95 0.81 0.68 0.70 0.73 0.90 1.12 1.20 1.14 1.09
0.55 0.62 0.68 0.73 0.80 0.84 0.84 0.97 1.15 1.12 0.99 0.91 0.89 0.92 1.01 1.37 1.75 1.73 1.65 1.40 1.11 0.94 0.85 0.84 0.90 1.03 1.08 1.22 1.31 1.18 1.15 1.24 1.21 1.22 1.13 1.02 0.96 0.99 1.08 1.12 1.27 1.29 1.28
0.51 0.57 0.63 0.73 0.85 0.88 0.84 0.88 1.00 1.09 1.04 0.95 0.90 0.89 0.92 1.19 1.81 1.95 1.65 1.25 1.07 0.96 0.89 0.84 0.84 0.96 0.99 1.09 1.24 1.31 1.37 1.49 1.54 1.54 1.48 1.36 1.13 1.04 1.09 1.23 1.31 1.48 1.53
0.52 0.57 0.62 0.66 0.80 0.87 0.87 0.92 0.96 1.03 1.10 1.10 0.98 0.89 0.86 1.01 1.60 1.74 1.46 1.12 0.97 0.92 0.87 0.85 0.85 0.90 0.96 0.95 1.04 1.07 1.09 1.24 1.46 1.58 1.64 1.31 1.13 1.08 1.29 1.49 1.46 1.53 1.49
0.58 0.61 0.66 0.63 0.67 0.81 0.91 0.92 0.93 0.97 1.00 1.08 1.05 0.96 0.88 0.94 1.43 1.59 1.35 1.08 0.97 0.89 0.83 0.83 0.82 0.84 0.94 1.13 1.11 1.05 0.94 0.96 1.17 1.37 1.61 1.45 1.30 1.34 1.65 1.97 2.06 1.94 1.56
0.65 0.67 0.66 0.61 0.61 0.71 0.81 0.89 0.92 0.93 0.91 0.95 0.97 0.96 0.92 0.90 1.21 1.46 1.31 1.04 0.98 0.91 0.82 0.82 0.83 0.81 1.02 1.28 1.23 1.08 0.90 0.82 0.93 1.25 1.55 1.68 1.71 1.83 2.06 2.38 2.55 2.38 1.94
0.61 0.67 0.62 0.56 0.52 0.54 0.64 0.79 0.88 0.90 0.87 0.88 0.90 0.91 0.86 0.80 1.02 1.28 1.29 1.04 0.96 0.92 0.87 0.83 0.93 1.02 1.17 1.30 1.18 1.14 1.21 1.00 0.88 0.93 1.01 1.14 1.24 1.39 1.75 2.04 2.33 2.41 2.09
0.60 0.66 0.60 0.55 0.54 0.55 0.60 0.73 0.83 0.91 0.93 0.88 0.85 0.86 0.84 0.82 0.92 1.09 1.31 1.12 0.97 0.92 0.92 0.88 0.85 1.07 1.15 1.22 1.26 1.20 1.41 1.32 1.10 1.10 1.05 1.00 1.00 1.13 1.34 1.64 2.02 2.32 2.33
0.62 0.60 0.60 0.60 0.58 0.60 0.63 0.71 0.83 0.93 0.99 0.93 0.85 0.83 0.81 0.82 0.91 1.05 1.23 1.25 1.15 0.97 0.88 0.77 0.80 1.02 1.10 1.19 1.18 1.24 1.35 1.32 1.15 1.08 0.99 0.93 0.96 1.04 1.15 1.33 1.65 1.90 1.99
0.58 0.57 0.57 0.61 0.60 0.62 0.67 0.74 0.83 0.92 0.96 0.94 0.86 0.80 0.79 0.77 0.89 1.11 1.09 1.13 1.18 1.01 0.88 0.95 1.01 1.11 1.11 1.03 1.07 1.16 1.15 1.09 1.17 1.16 1.00 0.91 0.95 1.08 1.16 1.21 1.35 1.62 1.78
0.49 0.54 0.54 0.59 0.64 0.67 0.72 0.75 0.81 0.90 0.98 0.89 0.81 0.77 0.72 0.76 0.94 1.10 1.05 1.03 1.11 1.09 1.03 1.06 1.13 1.12 1.02 0.92 0.94 0.96 0.92 0.99 1.14 1.15 1.02 0.91 0.89 0.99 1.13 1.23 1.34 1.49 1.70
0.44 0.52 0.59 0.62 0.68 0.72 0.74 0.77 0.82 0.84 0.98 0.95 0.82 0.80 0.83 0.92 1.08 1.21 1.18 1.11 1.10 1.12 1.23 1.29 1.21 1.11 1.05 0.92 0.82 0.75 0.79 0.93 1.05 0.99 0.99 0.97 0.93 0.95 1.02 1.12 1.33 1.48 1.63
0.47 0.52 0.59 0.65 0.68 0.69 0.67 0.70 0.81 0.84 0.90 0.88 0.83 0.83 0.81 0.96 1.09 1.15 1.21 1.24 1.26 1.33 1.39 1.31 1.10 0.95 0.91 0.86 0.82 0.78 0.74 0.78 0.84 0.91 0.97 0.98 0.98 1.00 1.02 1.03 1.18 1.42 1.57
0.49 0.52 0.57 0.64 0.63 0.60 0.59 0.59 0.65 0.78 0.89 0.89 0.85 0.84 0.87 0.94 0.99 1.07 1.18 1.27 1.31 1.33 1.25 1.04 0.88 0.82 0.80 0.79 0.78 0.75 0.72 0.67 0.72 0.81 0.87 0.91 0.96 1.00 1.02 1.04 1.10 1.24 1.42
0.46 0.53 0.56 0.59 0.61 0.60 0.59 0.58 0.60 0.66 0.77 0.83 0.87 0.86 0.86 0.91 0.95 1.03 1.17 1.30 1.33 1.20 1.03 0.93 0.85 0.78 0.76 0.79 0.80 0.79 0.75 0.71 0.74 0.77 0.79 0.81 0.89 0.99 1.01 1.00 1.03 1.16 1.30
0.46 0.49 0.49 0.54 0.59 0.61 0.61 0.63 0.64 0.66 0.70 0.75 0.81 0.94 1.02 1.01 1.03 1.07 1.12 1.10 1.06 0.98 0.92 0.90 0.86 0.84 0.83 0.83 0.85 0.85 0.83 0.80 0.76 0.77 0.77 0.77 0.79 0.88 0.91 0.88 0.91 1.04 1.20
0.48 0.56 0.54 0.55 0.59 0.62 0.63 0.67 0.71 0.74 0.76 0.77 0.80 0.89 1.06 1.23 1.20 1.16 1.06 0.99 0.98 0.88 0.84 0.89 0.89 0.89 0.90 0.91 0.91 0.91 0.89 0.83 0.78 0.78 0.75 0.74 0.75 0.79 0.82 0.83 0.88 0.95 1.01
0.47 0.52 0.59 0.58 0.57 0.60 0.65 0.69 0.73 0.79 0.81 0.77 0.74 0.83 1.08 1.22 1.13 0.98 0.94 0.96 1.02 1.01 0.95 0.95 0.94 0.94 0.94 0.96 0.96 0.93 0.88 0.81 0.75 0.74 0.74 0.73 0.74 0.78 0.77 0.81 0.84 0.88 0.95
0.49 0.51 0.53 0.55 0.57 0.62 0.68 0.70 0.76 0.81 0.81 0.80 0.78 0.85 1.00 0.98 0.98 0.96 0.92 0.92 0.99 1.05 1.07 1.08 1.04 0.98 1.00 1.04 1.05 1.02 0.91 0.79 0.72 0.72 0.74 0.73 0.73 0.74 0.76 0.77 0.77 0.79 0.87
0.54 0.56 0.58 0.56 0.58 0.70 0.74 0.71 0.75 0.80 0.83 0.83 0.84 0.87 0.90 0.91 0.92 0.95 0.97 0.98 1.03 1.06 1.04 1.06 1.05 0.98 0.94 0.95 0.97 1.01 0.99 0.84 0.74 0.76 0.82 0.80 0.76 0.75 0.76 0.76 0.74 0.77 0.81
0.60 0.62 0.62 0.60 0.60 0.66 0.72 0.75 0.76 0.80 0.83 0.86 0.86 0.86 0.88 0.89 0.90 0.92 0.97 1.03 1.07 1.05 1.02 1.02 0.98 0.94 0.91 0.90 0.87 0.85 0.84 0.84 0.85 0.86 0.86 0.87 0.82 0.76 0.78 0.79 0.76 0.76 0.82
0.64 0.65 0.65 0.64 0.65 0.67 0.72 0.76 0.78 0.79 0.82 0.83 0.85 0.86 0.87 0.89 0.91 0.91 0.93 0.98 1.01 0.99 0.96 0.96 0.95 0.95 0.92 0.87 0.83 0.81 0.86 0.91 0.96 1.04 1.07 1.00 0.89 0.81 0.82 0.82 0.78 0.77 0.81
0.64 0.64 0.66 0.68 0.70 0.70 0.76 0.81 0.80 0.78 0.83 0.83 0.83 0.86 0.88 0.91 0.91 0.88 0.87 0.89 0.92 0.90 0.88 0.88 0.89 0.92 0.91 0.89 0.88 0.93 0.98 0.94 0.95 1.03 1.13 1.12 0.95 0.82 0.82 0.84 0.78 0.79 0.82